エンケ彗星

2P/Encke (2013)

English version
Home page
Updated on February 10, 2013

---------------------------------------------------------------------

・ プロフィール

・ 写真集

・ 軌道要素

Epoch 2013 Nov. 4.0 TT = JDT 2456600.5
T 2013 Nov. 21.69397 TT                                 MPC
q   0.3361275            (2000.0)            P               Q
n   0.29903179     Peri.  186.53579     -0.94510597     -0.31478962
a   2.2147488      Node   334.57300     +0.30828377     -0.77005388
e   0.8482322      Incl.   11.77895     +0.10833198     -0.55490947
P   3.30
From 1478 observations 1993 July 22-2011 Aug. 10, mean residual 0".6.
     Nongravitational parameters A1 = -0.01, A2 = -0.0007.

・ 星図

・ 光度変化

        H = 14.2  G = 0.15                [    ,-100]  (              〜2013年 8月13日)
        m1 =  9.8 + 5 logΔ + 25   log r  [-100, -45]  (2013年 8月13日〜2013年10月 7日)
        m1 = 10.3 + 5 logΔ +  7.0 log r  [ -45,  20]  (2013年10月 7日〜2013年12月11日)
        m1 = 12.3 + 5 logΔ + 15.7 log r  [  20, 100]  (2013年12月11日〜2014年 3月 1日)
        H = 14.2  G = 0.15                [ 100,    ]  (2014年 3月 1日〜              )

---------------------------------------------------------------------

軌道要素はM.P.E.C. 2011-P44に掲載されたものです。
星図はステラナビゲータ Ver.8 (アストロアーツ) で作成したものです。
光度グラフはComet for Windowsで作成したものです。

---------------------------------------------------------------------

Copyright(C) Seiichi Yoshida (comet@aerith.net). All rights reserved.